NKS223 KATL-KFLL

Flight info

Callsign NKS223
Flight time N/A
Altitude 39000
Route SMLTZ3 WALET ZPLEN TEEKY4
Aircraft A20N/M-SDE2E3FGHIRWXY/LB1

Departure

Time 2026-05-03 21:10
Airport Hartsfield Jackson Atlanta International Airport (KATL)

Arrival

Time N/A
Airport Fort Lauderdale Hollywood International Airport (KFLL)
Time Latitude Longitude Altitude Speed Heading
2026-05-03 20:18 33.64031 -84.42886 1035 ft 0 kts 270°
2026-05-03 20:50 33.64031 -84.42881 1035 ft 1 kts 270°
2026-05-03 20:51 33.64031 -84.42872 1035 ft 1 kts 270°
2026-05-03 20:51 33.64031 -84.42881 1035 ft 8 kts 270°
2026-05-03 20:51 33.64031 -84.42887 1035 ft 0 kts 270°
2026-05-03 20:55 33.64031 -84.42880 1035 ft 1 kts 270°
2026-05-03 20:55 33.64031 -84.42871 1035 ft 1 kts 270°
2026-05-03 20:56 33.64031 -84.42862 1035 ft 1 kts 270°
2026-05-03 20:56 33.64031 -84.42853 1035 ft 1 kts 270°
2026-05-03 20:56 33.64031 -84.42836 1045 ft 3 kts 264°
2026-05-03 20:56 33.64035 -84.42815 1024 ft 3 kts 240°
2026-05-03 20:57 33.64047 -84.42798 1035 ft 3 kts 216°
2026-05-03 20:57 33.64055 -84.42791 1035 ft 0 kts 203°
2026-05-03 20:57 33.64047 -84.42796 1035 ft 4 kts 207°
2026-05-03 20:57 33.64006 -84.42810 1051 ft 0 kts 184°
2026-05-03 20:58 33.63997 -84.42811 1024 ft 3 kts 182°
2026-05-03 20:58 33.63995 -84.42810 1026 ft 0 kts 179°
2026-05-03 20:58 33.63973 -84.42810 1035 ft 10 kts 179°
2026-05-03 20:59 33.63876 -84.42807 1035 ft 16 kts 178°
2026-05-03 20:59 33.63759 -84.42806 1035 ft 15 kts 181°
2026-05-03 20:59 33.63669 -84.42778 1035 ft 14 kts 120°
2026-05-03 20:59 33.63659 -84.42626 1035 ft 24 kts 91°
2026-05-03 21:00 33.63657 -84.42427 1035 ft 6 kts 90°
2026-05-03 21:00 33.63657 -84.42384 1035 ft 10 kts 90°
2026-05-03 21:00 33.63657 -84.42224 1035 ft 19 kts 90°
2026-05-03 21:00 33.63657 -84.42041 1035 ft 24 kts 90°
2026-05-03 21:01 33.63658 -84.41828 1035 ft 27 kts 90°
2026-05-03 21:01 33.63658 -84.41667 1035 ft 13 kts 90°
2026-05-03 21:01 33.63658 -84.41538 1035 ft 18 kts 89°
2026-05-03 21:01 33.63657 -84.41380 1034 ft 21 kts 90°
2026-05-03 21:02 33.63656 -84.41199 1035 ft 22 kts 90°
2026-05-03 21:02 33.63656 -84.41025 1035 ft 20 kts 90°
2026-05-03 21:02 33.63649 -84.40936 1035 ft 7 kts 119°
2026-05-03 21:02 33.63633 -84.40919 1035 ft 1 kts 149°
2026-05-03 21:03 33.63625 -84.40916 1035 ft 0 kts 172°
2026-05-03 21:03 33.63616 -84.40914 1035 ft 4 kts 172°
2026-05-03 21:04 33.63577 -84.40912 1035 ft 0 kts 179°
2026-05-03 21:04 33.63565 -84.40912 1035 ft 0 kts 181°
2026-05-03 21:07 33.63549 -84.40913 1035 ft 8 kts 181°
2026-05-03 21:07 33.63476 -84.40960 1036 ft 15 kts 246°
2026-05-03 21:08 33.63472 -84.40993 1035 ft 2 kts 269°
2026-05-03 21:08 33.63472 -84.40996 1035 ft 0 kts 269°
2026-05-03 21:10 33.63469 -84.41277 1034 ft 77 kts 269°
2026-05-03 21:10 33.63474 -84.42227 1102 ft 141 kts 270°
2026-05-03 21:10 33.63463 -84.43547 1458 ft 178 kts 267°
2026-05-03 21:10 33.63384 -84.45097 2274 ft 191 kts 267°
2026-05-03 21:11 33.63251 -84.46658 3498 ft 183 kts 265°
2026-05-03 21:11 33.63091 -84.48157 4707 ft 180 kts 264°
2026-05-03 21:11 33.62972 -84.49677 5554 ft 193 kts 269°
2026-05-03 21:11 33.62938 -84.51312 6472 ft 196 kts 271°
2026-05-03 21:12 33.62911 -84.52939 7516 ft 194 kts 271°
2026-05-03 21:12 33.62878 -84.54562 8492 ft 196 kts 271°
2026-05-03 21:12 33.62880 -84.56213 9423 ft 199 kts 273°
2026-05-03 21:12 33.62901 -84.57887 10298 ft 203 kts 272°
2026-05-03 21:13 33.62974 -84.59635 11020 ft 212 kts 276°
2026-05-03 21:13 33.63097 -84.61402 11908 ft 213 kts 275°
2026-05-03 21:13 33.63173 -84.63253 12379 ft 238 kts 272°
2026-05-03 21:13 33.63071 -84.65368 12634 ft 269 kts 258°
2026-05-03 21:14 33.62206 -84.67443 13178 ft 291 kts 231°
2026-05-03 21:14 33.60552 -84.68958 13763 ft 314 kts 210°
2026-05-03 21:14 33.58370 -84.69807 13950 ft 349 kts 190°
2026-05-03 21:14 33.55817 -84.69757 13976 ft 386 kts 173°
2026-05-03 21:15 33.53047 -84.69060 13980 ft 417 kts 171°
2026-05-03 21:15 33.50100 -84.68380 13976 ft 445 kts 172°
2026-05-03 21:15 33.46970 -84.67732 14223 ft 459 kts 172°
2026-05-03 21:15 33.43836 -84.67073 14912 ft 454 kts 172°
2026-05-03 21:16 33.40812 -84.66286 14563 ft 439 kts 166°
2026-05-03 21:16 33.38100 -84.64731 14211 ft 428 kts 144°
2026-05-03 21:16 33.36174 -84.62175 14003 ft 414 kts 124°
2026-05-03 21:16 33.34628 -84.59374 13994 ft 392 kts 125°
2026-05-03 21:17 33.33064 -84.56819 14023 ft 372 kts 129°